Location: Cardiff
(53.7833°N, 113.6000°W)
Time: 21:25:48
(UTC+00:00)

Oscar 19 - Pass Details

Date: 09 December 2023
Orbit: 771 x 789 km, 98.9° (Epoch: 04 March)

Event Time Altitude Azimuth Distance (km) Brightness Sun altitude
Rises 11:28:54 0° 23° (NNE) 3,277 14.2 -35.5°
Reaches altitude 10° 11:31:34 10° 35° (NE) 2,347 13.5 -35.1°
Maximum altitude 11:35:58 27° 93° (E) 1,460 12.5 -34.5°
Drops below altitude 10° 11:40:21 10° 151° (SSE) 2,342 13.3 -33.8°
Sets 11:42:59 0° 163° (SSE) 3,268 14.0 -33.4°
